Flag for Russia Weather past 2 weeks in Saint-Petersburg, Russia

Now
50 °F

Fog.


Feels Like: 50 °F
Forecast: 52 / 64 °F
Wind: No wind

Location: St. Petersburg

Current Time: Sep 4, 2015 at 7:31:36 AM

Latest Report: Sep 4, 2015 at 6:30 AM


Visibility: 2 mi

Pressure: 29.92 "Hg

Humidity: 94%

Dew point: 48 °F

Location of Saint-PetersburgLocation

Historic Weather in Saint-Petersburg — Graph

°F

Saint-Petersburg temperature yesterday

Maximum temperature yesterday: 57 °F (at 12:00 AM)
Minimum temperature yesterday: 52 °F (at 4:00 AM)
Average temperature yesterday: 54 °F

Past Weeks' High & Low Weather Summary

 TemperatureHumidityPressure
High77 °F (Aug 24, 4:30 PM)100% (Aug 21, 3:00 AM)30.42 "Hg (Aug 21, 3:00 AM)
Low46 °F (Sep 2, 3:30 AM)31% (Aug 23, 5:00 PM)29.62 "Hg (Aug 28, 7:00 PM)
Average61 °F75%30.06 "Hg
* Reported Aug 20 6:00 AM — Sep 4 6:00 AM, Saint-Petersburg, Weather by CustomWeather, © 2015

Note: Actual official high and low records may vary slightly from our data, if they occured in-between our weather recording intervals... More about our weather records

Advertising

Saint-Petersburg weather history for previous 24 hours

 ConditionsComfort  
Time TempWeatherWind HumidityBarometerVisibility
6:00 AM
Fri, Sep 4
50 °FClear.No wind94%29.92 "Hg4 mi
5:30 AM50 °FClear.No wind94%29.95 "Hg5 mi
5:00 AM50 °FClear.No wind100%29.92 "Hg5 mi
4:30 AM52 °FClear.No wind94%29.95 "Hg5 mi
4:00 AM52 °FClear.No wind94%29.95 "Hg4 mi
3:30 AM52 °FClear.No wind94%29.95 "Hg4 mi
3:00 AM52 °FClear.No wind94%29.95 "Hg4 mi
2:30 AM52 °FClear.No wind94%29.95 "Hg4 mi
2:00 AM52 °FFog.No wind94%29.95 "Hg5 mi
1:30 AM52 °FClear.No wind94%29.95 "Hg10 mi
1:00 AM54 °FClear.No wind88%29.95 "Hg10 mi
12:30 AM52 °FClear.No wind94%29.95 "Hg10 mi
12:00 AM52 °FClear.No wind94%29.95 "Hg10 mi
11:30 PM
Thu, Sep 3
54 °FPassing clouds.1 mph88%29.95 "HgN/A
11:00 PM52 °FPassing clouds.No wind94%29.95 "HgN/A
10:30 PM54 °FPassing clouds.No wind88%29.95 "HgN/A
10:00 PM54 °FPassing clouds.No wind88%29.95 "HgN/A
9:30 PM54 °FPassing clouds.No wind88%29.95 "HgN/A
9:00 PM54 °FClear.No wind88%29.95 "Hg10 mi
8:30 PM54 °FSunny.1 mph88%29.95 "Hg10 mi
8:00 PM55 °FPassing clouds.3 mph82%29.95 "HgN/A
7:30 PM55 °FScattered clouds.3 mph82%29.95 "HgN/A
7:00 PM55 °FPartly sunny.3 mph82%29.95 "HgN/A
6:30 PM55 °FPartly sunny.8 mph82%29.95 "HgN/A
6:00 PM57 °FPartly sunny.6 mph77%29.95 "HgN/A
5:30 PM57 °FPartly sunny.8 mph77%29.95 "HgN/A
5:00 PM57 °FPartly sunny.8 mph77%29.95 "HgN/A
4:30 PM57 °FScattered clouds.6 mph77%29.95 "HgN/A
4:00 PM57 °FScattered clouds.8 mph77%29.95 "HgN/A
3:30 PM57 °FScattered clouds.8 mph77%29.95 "HgN/A
3:00 PM55 °FScattered clouds.8 mph82%29.98 "HgN/A
2:30 PM55 °FScattered clouds.6 mph82%29.98 "HgN/A
2:00 PM55 °FScattered clouds.6 mph77%29.98 "HgN/A
1:30 PM55 °FScattered clouds.6 mph77%29.98 "HgN/A
1:00 PM55 °FScattered clouds.6 mph77%29.95 "HgN/A
12:30 PM55 °FScattered clouds.6 mph72%29.95 "HgN/A
12:00 PM54 °FScattered clouds.8 mph77%29.95 "HgN/A
11:30 AM54 °FScattered clouds.10 mph77%29.95 "HgN/A
11:00 AM54 °FScattered clouds.8 mph77%29.95 "HgN/A
10:30 AM52 °FScattered clouds.8 mph82%29.95 "HgN/A
10:00 AM52 °FScattered clouds.8 mph82%29.95 "HgN/A
9:30 AM52 °FScattered clouds.10 mph82%29.95 "HgN/A
9:00 AM52 °FLight rain. Scattered clouds.10 mph82%29.95 "HgN/A
8:30 AM52 °FLight rain. Scattered clouds.10 mph82%29.95 "HgN/A
8:00 AM52 °FLight rain. Scattered clouds.10 mph82%29.95 "HgN/A
7:30 AM52 °FLight rain. Clear.8 mph82%29.95 "HgN/A
Weather by CustomWeather, © 2015

See weather overviewHow to use our weather pages